Simultaneous Nadir Overpasses (SNOs) Predictions

Prediction of SNOs between GOES-16 and TERRA Satellite Orbit:

Table of predicted SNOs for the next 14.0 days since TLE Epoch: 11/26/2022
Index Date Time (GOES-16) GOES-16 Lat,Lon TERRA Lat,Lon Distance(km) Time Diff (sec)
1 11/26/2022 15:24:00 -0.05, -75.21 0.42, -77.33 242.58 80
2 11/28/2022 15:05:39 -0.05, -75.21 -0.42, -73.55 189.75 80
3 11/29/2022 03:28:47 0.04, -75.21 -0.68, -78.52 376.90 80
4 12/01/2022 03:10:26 0.04, -75.22 0.12, -74.72 56.70 80
5 12/03/2022 02:54:44 0.04, -75.25 0.93, -70.93 491.08 80
6 12/03/2022 15:17:45 -0.04, -75.27 0.09, -75.88 68.77 80
7 12/05/2022 14:59:23 -0.04, -75.31 -0.73, -72.08 366.49 80
8 12/06/2022 03:22:32 0.03, -75.30 -0.34, -77.06 199.31 80
9 12/08/2022 03:04:10 0.03, -75.34 0.49, -73.26 236.54 80
10 12/08/2022 15:27:11 -0.03, -75.36 0.59, -78.20 323.22 80
